DateTimeUTC,F1_A11,F1_S11,BsB_S11,BsG_S11,BsR_S11,BbsB_S11,BbsG_S11,BbsR_S11,BaB_A11,BaG_A11,BaR_A11,Tu_S11,T_S11,Uu_S11,U_S11,P_S11,T1_A11
2021-08-29T00:00:00Z,00000200,20000000,,,,,,,-000.16,-000.12,-000.36,19.0,25.8,07.2,04.8,0667.7,31.0
2021-08-29T00:01:00Z,00000200,20000000,,,,,,,-000.12,-000.10,0000.02,19.0,25.9,07.3,04.8,0667.7,31.1
2021-08-29T00:02:00Z,00000200,20000000,,,,,,,0000.08,-000.14,-000.08,19.0,25.9,07.3,04.8,0667.7,31.1
2021-08-29T00:03:00Z,00000200,60000000,,,,,,,-000.07,-000.00,-000.04,19.0,25.9,07.3,04.8,0667.7,31.1
2021-08-29T00:04:00Z,00000200,40000000,0001.35,0000.89,0000.56,0000.59,0000.03,-000.13,-000.02,0000.24,0000.34,19.2,25.7,07.2,04.9,0668.7,31.1
2021-08-29T00:05:00Z,00000200,00000000,0001.38,0000.99,0000.78,-000.28,0000.17,0000.40,-000.13,-000.51,-000.26,19.2,25.6,07.3,04.9,0668.7,31.1
2021-08-29T00:06:00Z,00000200,00000000,0001.65,0000.98,0000.12,-000.17,0000.49,-000.07,-000.10,0000.11,0000.23,19.2,25.6,07.2,04.9,0668.7,31.1
2021-08-29T00:07:00Z,00000200,00000000,0001.43,0000.67,0000.28,0000.17,0000.23,0000.02,0000.20,0000.29,0000.13,19.2,25.6,07.3,05.0,0668.7,31.1
2021-08-29T00:08:00Z,00000200,00000000,0001.56,0000.75,0000.26,0000.28,0000.10,0000.12,-000.26,-000.51,-000.08,19.2,25.6,07.1,04.8,0668.7,31.1
2021-08-29T00:09:00Z,00000200,00000000,0001.05,0000.80,0000.95,0000.31,0000.21,-000.04,0000.08,0000.26,-000.06,19.2,25.6,07.3,05.0,0668.7,31.1
2021-08-29T00:10:00Z,00000200,00000000,0001.57,0000.79,0000.47,0000.51,0000.26,-000.17,-000.42,-000.29,-000.11,19.2,25.6,07.3,04.9,0668.7,31.1
2021-08-29T00:11:00Z,00000200,00000000,0001.43,0001.12,0000.34,0000.41,0000.13,-000.09,-000.22,0000.17,-000.05,19.2,25.6,07.2,04.9,0668.7,31.0
2021-08-29T00:12:00Z,00000200,00000000,0001.33,0000.82,0000.57,0000.19,0000.20,-000.04,0000.21,-000.29,0000.32,19.2,25.6,07.1,04.8,0668.7,31.0
2021-08-29T00:13:00Z,00000200,00000000,0000.96,0000.93,0000.30,0000.35,0000.57,-000.22,0000.00,0000.48,0000.17,19.2,25.5,07.2,04.9,0668.7,31.0
2021-08-29T00:14:00Z,00000200,00000000,0000.85,0000.64,0000.01,0000.44,0000.49,0000.49,-000.04,-000.30,-000.37,19.2,25.5,07.3,05.0,0668.7,31.0
2021-08-29T00:15:00Z,00000200,00000000,0000.59,0000.60,0000.17,0000.22,0000.47,0000.11,0000.33,0000.11,0000.66,19.2,25.5,07.3,04.9,0668.7,31.0
2021-08-29T00:16:00Z,00000200,00000000,0001.92,0001.27,0000.17,0000.54,0000.41,-000.23,-000.37,-000.20,-000.39,19.2,25.5,07.4,05.0,0668.7,31.0
2021-08-29T00:17:00Z,00000200,00000000,0000.84,0000.84,0000.31,0000.18,0000.13,0000.15,-000.45,-000.58,-000.28,19.2,25.5,07.3,04.9,0668.7,31.1
2021-08-29T00:18:00Z,00000200,00000000,0001.40,0000.82,0000.14,0000.52,0000.24,-000.12,-000.46,-000.09,-000.55,19.2,25.5,07.0,04.8,0668.7,31.0
2021-08-29T00:19:00Z,00000200,00000000,0001.02,0000.68,0000.32,0000.08,0000.03,0000.34,0000.39,0000.37,0000.72,19.2,25.5,07.0,04.7,0668.7,31.0
2021-08-29T00:20:00Z,00000200,00000000,0001.30,0000.68,0000.20,0000.51,0000.40,-000.02,0000.59,0000.49,0000.49,19.2,25.5,07.4,05.0,0668.7,31.0
2021-08-29T00:21:00Z,00000200,00000000,0000.86,0000.93,0000.42,0000.15,0000.24,0000.00,-000.23,0000.43,-000.07,19.2,25.5,07.4,05.1,0668.7,31.0
2021-08-29T00:22:00Z,00000200,00000000,0001.33,0000.70,0000.32,0000.17,0000.12,-000.10,0000.21,-000.54,0000.06,19.2,25.5,07.4,05.1,0668.7,31.1
2021-08-29T00:23:00Z,00000200,00000000,0001.41,0001.05,0000.68,0000.38,0000.23,0000.24,-000.39,-000.21,0000.19,19.2,25.5,07.4,05.1,0668.7,31.1
2021-08-29T00:24:00Z,00000200,00000000,0001.40,0000.80,0000.46,0000.45,0000.35,0000.20,0000.36,0000.59,-000.12,19.2,25.5,07.4,05.1,0668.7,31.0
2021-08-29T00:25:00Z,00000200,00000000,0001.65,0001.34,0000.66,0000.63,0000.30,0000.21,-001.78,-002.37,-001.24,19.2,25.5,07.1,04.9,0668.7,31.1
2021-08-29T00:26:00Z,00000200,00000000,0001.09,0001.24,0000.81,0000.05,0000.48,0000.19,-000.60,-000.38,-000.57,19.2,25.5,06.5,04.4,0668.7,31.1
2021-08-29T00:27:00Z,00000200,00000000,0001.47,0001.10,0000.34,0000.11,0000.39,0000.04,-000.18,-000.13,-000.09,19.2,25.5,06.3,04.3,0668.7,31.0
2021-08-29T00:28:00Z,00000200,00000000,0001.51,0000.69,0000.85,0000.76,0000.29,0000.18,0000.07,0000.07,0000.23,19.1,25.5,06.2,04.3,0668.8,31.0
2021-08-29T00:29:00Z,00000200,00000000,0001.47,0000.92,0000.66,-000.10,0000.71,0000.18,-000.02,0000.44,0000.21,19.1,25.4,06.1,04.2,0668.7,31.1
2021-08-29T00:30:00Z,00000200,00000000,0002.07,0001.24,0000.87,0000.24,0000.16,0000.12,0000.12,-000.29,0000.06,19.1,25.5,06.1,04.2,0668.7,31.0
2021-08-29T00:31:00Z,00000200,00000000,0001.33,0001.33,0000.95,0000.05,0000.44,0000.34,0000.06,0000.28,-000.01,19.2,25.5,06.2,04.2,0668.7,31.0
2021-08-29T00:32:00Z,00000200,00000000,0002.17,0001.31,0000.71,0000.40,0000.37,0000.14,-000.08,-000.13,0000.23,19.3,25.5,06.1,04.2,0668.7,31.1
2021-08-29T00:33:00Z,00000200,00000000,0001.61,0001.55,0000.51,0000.47,0000.45,-000.02,0000.34,0000.31,0000.38,19.3,25.6,06.0,04.1,0668.8,31.1
2021-08-29T00:34:00Z,00000200,00000000,0001.54,0001.31,0000.70,0000.54,0000.57,0000.06,-000.10,0000.05,-000.28,19.4,25.6,06.1,04.2,0668.8,31.1
2021-08-29T00:35:00Z,00000200,00000000,0002.08,0001.09,0000.54,0000.37,0000.42,-000.17,-000.05,-000.17,0000.06,19.3,25.6,06.0,04.1,0668.8,31.1
2021-08-29T00:36:00Z,00000200,00000000,0001.33,0001.17,0000.53,0000.32,0000.05,-000.29,-000.08,0000.06,-000.10,19.3,25.6,06.0,04.1,0668.8,31.0
2021-08-29T00:37:00Z,00000200,00000000,0001.48,0000.99,0000.65,0000.27,0000.42,0000.30,0000.19,0000.10,0000.14,19.3,25.6,05.9,04.0,0668.8,31.0
2021-08-29T00:38:00Z,00000200,00000000,0001.23,0000.96,0000.53,0000.56,0000.34,-000.24,-000.04,0000.00,0000.25,19.3,25.6,06.0,04.1,0668.8,31.1
2021-08-29T00:39:00Z,00000200,00000000,0001.51,0000.71,0000.77,0000.23,0000.45,-000.15,0000.19,-000.03,-000.26,19.3,25.6,05.9,04.0,0668.8,31.1
2021-08-29T00:40:00Z,00000200,00000000,0001.23,0000.74,0000.68,-000.15,0000.38,0000.29,-000.07,0000.10,0000.53,19.3,25.5,06.0,04.1,0668.8,31.1
2021-08-29T00:41:00Z,00000200,00000000,0001.27,0000.93,0000.70,-000.06,0000.40,-000.15,0000.13,0000.04,-000.14,19.3,25.5,05.9,04.0,0668.8,31.0
2021-08-29T00:42:00Z,00000200,00000000,0001.42,0001.01,0001.04,0000.24,0000.25,0000.31,0000.21,0000.23,0000.05,19.2,25.5,06.0,04.1,0668.8,31.0
2021-08-29T00:43:00Z,00000200,00000000,0001.65,0000.80,0000.83,0000.46,0000.29,0000.28,0000.05,0000.16,0000.15,19.2,25.5,06.0,04.1,0668.8,31.0
2021-08-29T00:44:00Z,00000200,00000000,0001.97,0000.76,0000.71,0000.23,0000.35,0000.14,0000.31,0000.30,0000.51,19.2,25.5,06.0,04.1,0668.8,31.0
2021-08-29T00:45:00Z,00000200,00000000,0001.67,0001.09,0000.33,-000.02,0000.34,0000.11,0000.20,0000.13,0000.19,19.2,25.5,06.0,04.1,0668.8,31.0
2021-08-29T00:46:00Z,00000200,00000000,0001.40,0001.46,0000.47,0000.49,0000.27,0000.05,0000.03,0000.48,-000.37,19.2,25.5,06.1,04.2,0668.8,31.1
2021-08-29T00:47:00Z,00000200,00000000,0001.92,0001.28,0000.70,0000.58,0000.30,-000.16,-000.06,-000.33,0000.60,19.2,25.5,06.2,04.2,0668.8,31.1
2021-08-29T00:48:00Z,00000200,00000000,0001.34,0001.22,0000.73,0000.03,0000.34,0000.33,0000.64,0000.43,-000.16,19.2,25.5,06.0,04.1,0668.8,31.0
2021-08-29T00:49:00Z,00000200,00000000,0001.67,0000.80,0000.45,0000.50,0000.35,-000.12,-000.15,0000.15,0000.52,19.2,25.5,06.1,04.2,0668.7,31.0
2021-08-29T00:50:00Z,00000200,00000000,0001.02,0000.85,0000.52,0000.32,0000.54,0000.22,0000.17,0000.24,0000.17,19.1,25.5,06.0,04.1,0668.8,31.0
2021-08-29T00:51:00Z,00000200,00000000,0001.54,0000.94,0000.53,-000.01,0000.34,-000.14,0000.11,-000.17,-000.14,19.1,25.5,06.0,04.1,0668.7,31.0
2021-08-29T00:52:00Z,00000200,00000000,0001.25,0001.21,0000.43,0000.04,0000.53,0000.43,-000.08,-000.18,-000.11,19.1,25.5,06.1,04.1,0668.8,31.0
2021-08-29T00:53:00Z,00000200,00000000,0001.30,0001.22,0000.37,-000.10,0000.17,-000.16,0000.22,0000.03,0000.13,19.1,25.4,05.9,04.0,0668.7,31.0
2021-08-29T00:54:00Z,00000200,00000000,0001.34,0000.72,0000.77,0000.10,0000.05,-000.05,-000.52,-000.15,0000.02,19.1,25.4,05.9,04.0,0668.7,31.0
2021-08-29T00:55:00Z,00000200,00000000,0000.86,0000.96,0000.35,0000.69,0000.23,-000.05,-000.10,-000.11,-000.23,19.1,25.4,05.9,04.0,0668.7,31.0
2021-08-29T00:56:00Z,00000200,00000000,0001.48,0000.78,0000.15,0000.05,0000.55,-000.04,0000.14,0000.00,-000.02,19.1,25.4,05.8,03.9,0668.7,31.0
2021-08-29T00:57:00Z,00000200,40000000,,,,,,,0000.70,0000.26,0000.64,19.1,25.5,05.5,03.7,0668.7,31.0
2021-08-29T00:58:00Z,00000200,60000000,,,,,,,-000.69,-000.14,-000.56,18.8,25.6,06.0,03.9,0667.8,31.0
2021-08-29T00:59:00Z,00000200,20000000,,,,,,,-000.15,0000.10,0000.28,18.8,25.7,05.9,03.9,0667.8,31.0
